COSMOS 1275 DEB, 12652

Orbit data source: Space-Track

COSMOS 1275 DEB, 12652 is space debris in LEO originally from a launch on Thu, 04 Jun 1981 UTC launched from the Plesetsk Missile And Space Complex (PKMTR). Debris objects in space refer to the collection of defunct objects orbiting the Earth. Examples of debris include non-operational satellites, rocket bodies, and fragments generated from explosions, collisions, or faulty payload assembly.

Loading next visibility...
Identifier
12652, 1981-053G
Orbit
LEO
Country
Flag of CISCIS
Related business
Manufacturer
Unknown
Mission
Spacecraft
Bus & Motor
Unknown
Mass
Unknown
Launch date (UTC)
1981-06-04 (45 years ago)
Launch vehicle
Unknown
Launch site
Plesetsk Missile And Space Complex (PKMTR)
Object type
Payload
Rocket body
Debris
Shape & HBR
Unknown shape, 0.1 m
Radar Cross Section
Medium (>0.1 m² and <1 m²)

Expand to show TLE details & history
Last TLE update: 13 hours ago

TLE from 13 hours ago
0 COSMOS 1275 DEB
1 12652U 81053G   26254.42731749  .00000986  00000-0  61613-3 0  9992
2 12652  82.9358 289.5387 0053007  84.4012 339.6140 14.03106703207975
Epoch: 2026-09-11T10:15Z
TLE epoch observation values (Epoch: 2026-09-11T10:15:20.231Z)
Latitude
63.02253°
Longitude
159.26776°
Altitude
857.834 km
Speed
7.448 km/s
True Right ascension
20h 14m 12s
True Declination
62° 53' 07"
Sunlit
Object was in daylight at epoch
Visualization orbit readout
Latitude
Unknown
Longitude
Unknown
Altitude
Unknown
Speed
Unknown
Apparent Right ascension
Unknown
Apparent Declination
Unknown
Sunlit
N/A
Visualization observer readout
Local Sidereal Time
15:25:49
Azimuth
Unknown
Elevation
Unknown
Doppler factor
Unknown
Orbital elements
Apogee altitude
918.641 km
Perigee altitude
841.693 km
Semi-major axis
7,258.304 km
Eccentricity
0.0053
Inclination
82.9358°
RAAN
289.5387°
Arg. of periapsis
84.4012°
True anomaly
339.40109°
Mean anomaly
339.614°
Eccentric anomaly
339.50768°
Mean motion
3.50987 °/min
Orbital period
102.57 mins
BSTAR
0.00061613
Loading maneuver chart data...
Computing Atmospheric mass density...
Loading historical data...
Loading historical data...
Loading historical data...
Loading historical data...
Loading historical data...
Loading historical data...
Loading historical data...

Documentation

Showing up to 5 results
|